Torna al catalogo

STARLINK-32166

AttivoComunicazioniVLEO
NORAD 60257·PAYLOAD·🇺🇸 United States

Lanciato Jul 27, 2024 da Cape Canaveral Space Force Station

Loading…

Prossimi Passaggi (prossime 24 ore)

TLE

AggiornatoSource: CelesTrak SupGP

Epoca: Sep 15, 2026, 03:09 UTC

1 60257C 24131C   26258.13173611 -.00049489  00000+0 -14615-2 0  2589
2 60257  53.1570 251.0269 0001238  99.9784 264.5176 15.34429075    10

Traccia STARLINK-32166 in tempo reale con AllMySat

Download on the App Store